STARLINK-36190 (67029 NORAD) Tracking and Keplerian Element Data

This shows tracking and keplerian element data for the satellite.

Feedback or suggestion? Click here.




ElementValue
Catalog67029
NameSTARLINK-36190
Epoch Orbit143
Epoch Day354.25003472
Epoch Year2025
RAAN301.9168
Inclination69.9937
Eccentricity0.0003949
Argument of Perigee271.6385
Mean Anonmoly354.5816
Mean Motion15.93172231
Decay Rate-0.01329087
L11 67029U 25293AC 25354.25003472 -.01329087 51702-3 -37769-2 0 9991
L22 67029 69.9937 301.9168 0003949 271.6385 354.5816 15.93172231 1438



Live tracking and technical data element details for STARLINK-36190 (NORAD 67029). STARLINK-36190 can be tracked NOW for your location showing map with azimuth and elevation plus other details from your city location.







IsCatalogInMostPopularTable: catalog: 67029, numindb: 12
Update: records affected: 1



GetName: 67029 STARLINK-36190

Hit Count: updated at: Fri, 16 Jan 2026 09:48:09 GMT